Flag for Norway Weather past 2 weeks in Vestby, Norway

Now
50 °F

Light rain. Broken clouds.


Feels Like: 47 °F
Forecast: 39 / 47 °F
Wind: 7 mph from Southeast

Location: Rygge

Current Time: Oct 21, 2014 at 1:05:33 PM

Latest Report: Oct 21, 2014 at 12:20 PM


Visibility: 5 mi

Pressure: 29.50 "Hg

Humidity: 94%

Dew point: 48 °F

Location of VestbyLocation

Historic Weather in Vestby — Graph

°F

Vestby temperature yesterday

Maximum temperature yesterday: 61 °F (at 3:50 PM)
Minimum temperature yesterday: 45 °F (at 10:20 PM)
Average temperature yesterday: 53 °F

Past Weeks' High & Low Weather Summary

 TemperatureHumidityPressure
High61 °F (Oct 20, 3:50 PM)100% (Oct 7, 11:50 PM)30.36 "Hg (Oct 7, 11:50 PM)
Low34 °F (Oct 13, 6:50 AM)59% (Oct 20, 3:50 PM)29.30 "Hg (Oct 20, 4:20 AM)
Average48 °F90%29.79 "Hg
* Reported Oct 6 11:20 AM — Oct 21 11:50 AM, Vestby, Weather by CustomWeather, © 2014

Note: Actual official high and low records may vary slightly from our data, if they occured in-between our weather recording intervals... More about our weather records

Advertising

Vestby weather history for previous 24 hours

 ConditionsComfort  
Time TempWeatherWind HumidityBarometerVisibility
11:50 AM
Oct 21
52 °FScattered clouds.8 mph88%29.50 "HgN/A
11:20 AM52 °FPassing clouds.10 mph88%29.53 "HgN/A
10:50 AM50 °FPassing clouds.9 mph88%29.53 "HgN/A
10:20 AM50 °FPassing clouds.12 mph88%29.50 "HgN/A
9:50 AM48 °FPassing clouds.9 mph94%29.50 "HgN/A
9:20 AM46 °FScattered clouds.9 mph100%29.50 "HgN/A
8:50 AM46 °FPassing clouds.12 mph93%29.50 "HgN/A
8:20 AM46 °FPassing clouds.10 mph93%29.50 "Hg6 mi
7:50 AM46 °FPassing clouds.13 mph100%29.50 "Hg5 mi
7:20 AM46 °FPassing clouds.12 mph100%29.50 "Hg6 mi
6:50 AM46 °FPassing clouds.14 mph100%29.50 "HgN/A
6:20 AM48 °FPartly cloudy.12 mph94%29.50 "HgN/A
5:50 AM48 °FMostly cloudy.10 mph100%29.50 "HgN/A
4:50 AM48 °FLow clouds.5 mph100%29.53 "HgN/A
4:20 AM48 °FLow clouds.3 mph100%29.53 "HgN/A
3:50 AM46 °FLow clouds.3 mph100%29.53 "HgN/A
3:20 AM46 °FMostly cloudy.6 mph100%29.53 "HgN/A
2:50 AM45 °FLow clouds.7 mph100%29.53 "HgN/A
2:20 AM45 °FMostly cloudy.2 mph93%29.53 "Hg5 mi
1:50 AM43 °FFog.2 mph100%29.53 "Hg1 mi
1:20 AM45 °FFog.1 mph100%29.53 "Hg0 mi
12:50 AM45 °FFog.3 mph100%29.53 "Hg1 mi
12:20 AM45 °FQuite cool.3 mph93%29.53 "Hg0 mi
11:50 PM
Oct 20
45 °FPassing clouds.2 mph100%29.53 "Hg1 mi
11:20 PM46 °FFog.3 mph100%29.50 "Hg1 mi
10:50 PM46 °FClear.3 mph100%29.53 "Hg10 mi
10:20 PM45 °FClear.5 mph100%29.50 "Hg10 mi
9:50 PM46 °FClear.3 mph100%29.50 "Hg10 mi
9:20 PM46 °FClear.1 mph93%29.50 "Hg10 mi
8:50 PM48 °FPassing clouds.3 mph94%29.50 "HgN/A
8:20 PM52 °FClear.5 mph88%29.50 "Hg10 mi
7:50 PM52 °FClear.6 mph88%29.50 "Hg10 mi
7:20 PM54 °FPassing clouds.7 mph82%29.50 "HgN/A
6:50 PM52 °FSunny.7 mph88%29.47 "Hg10 mi
6:20 PM55 °FSunny.6 mph77%29.47 "Hg10 mi
5:50 PM55 °FSunny.6 mph77%29.47 "Hg10 mi
5:20 PM57 °FSunny.6 mph72%29.47 "Hg10 mi
4:50 PM59 °FSunny.5 mph68%29.47 "Hg10 mi
4:20 PM61 °FPassing clouds.5 mph63%29.45 "HgN/A
3:50 PM61 °FSunny.2 mph59%29.45 "Hg10 mi
3:20 PM59 °FPassing clouds.6 mph63%29.45 "HgN/A
2:50 PM59 °FSunny.7 mph63%29.45 "Hg10 mi
2:20 PM59 °FPassing clouds.5 mph68%29.42 "HgN/A
1:50 PM59 °FPassing clouds.6 mph68%29.42 "HgN/A
1:20 PM57 °FSunny.7 mph72%29.42 "Hg10 mi
Weather by CustomWeather, © 2014

See weather overviewHow to use our weather pages